Weather History for Llano, TX

Change the Weather History Date:

Sunday, September 22, 2013

  Actual Average (KBMQ) Record (KBMQ)
Temperature  
Mean Temperature 68 °F -  
Max Temperature 84 °F 84 °F 97 °F (2005)
Min Temperature 51 °F 63 °F 54 °F (1999)
Cooling Degree Days 2    
Growing Degree Days 18 (Base 50)    
Moisture  
Dew Point 51 °F    
Average Humidity 61    
Maximum Humidity 94    
Minimum Humidity 26    
Precipitation  
Precipitation 0.00 in - - ()
Sea Level Pressure  
Sea Level Pressure 29.92 in    
Wind  
Wind Speed 1 mph (East)    
Max Wind Speed 9 mph    
Max Gust Speed -    
Visibility 10 miles    
Events      
Averages and records for this station are not official NWS values.
T = Trace of Precipitation, MM = Missing Value Source: NWS Daily Summary

Daily Weather History Graph

Daily Weather History Graph

Search for Another Location

Airport:

Trip Planner

Search our weather history database for the weather conditions in past years. The results will help you decide how hot, cold, wet, or windy it might be!

Date:

Astronomy

Sep. 22, 2013 Rise Set
Actual Time 7:23 AM CDT 7:30 PM CDT
Civil Twilight 6:59 AM CDT 7:54 PM CDT
Nautical Twilight 6:30 AM CDT 8:22 PM CDT
Astronomical Twilight 6:02 AM CDT 8:51 PM CDT
Moon 9:38 PM CDT (9/22) 10:29 AM CDT (9/22)
Length of Visible Light 12h 55m
Length of Day
12h 07m
Waning Gibbous, 88% of the Moon is Illuminated
Sep 22
Waning Gibbous
Sep 26
Last Quarter
Oct 4
New
Oct 11
First Quarter
Oct 18
Full

Hourly Weather History & Observations

Time (CDT) Temp. Dew Point Humidity Pressure Visibility Wind Dir Wind Speed Gust Speed Precip Events Conditions
12:15 AM 60.8 °F 51.8 °F 72% 29.96 in 10.0 mi Calm Calm - N/A   Clear
12:35 AM 60.8 °F 51.8 °F 72% 29.96 in 10.0 mi Calm Calm - N/A   Clear
12:55 AM 59.0 °F 53.6 °F 82% 29.95 in 10.0 mi Calm Calm - N/A   Clear
1:15 AM 57.2 °F 53.6 °F 88% 29.95 in 10.0 mi Calm Calm - N/A   Clear
1:35 AM 57.2 °F 51.8 °F 82% 29.95 in 10.0 mi Calm Calm - N/A   Clear
1:55 AM 57.2 °F 53.6 °F 88% 29.95 in 10.0 mi Calm Calm - N/A   Clear
2:15 AM 55.4 °F 53.6 °F 94% 29.95 in 10.0 mi Calm Calm - N/A   Clear
2:35 AM 55.4 °F 53.6 °F 94% 29.95 in 10.0 mi Calm Calm - N/A   Clear
2:55 AM 55.4 °F 53.6 °F 94% 29.95 in 10.0 mi Calm Calm - N/A   Clear
3:15 AM 55.4 °F 51.8 °F 88% 29.94 in 10.0 mi Calm Calm - N/A   Clear
3:35 AM 53.6 °F 51.8 °F 94% 29.94 in 10.0 mi Calm Calm - N/A   Clear
3:55 AM 53.6 °F 51.8 °F 94% 29.94 in 10.0 mi Calm Calm - N/A   Clear
4:15 AM 53.6 °F 51.8 °F 94% 29.94 in 10.0 mi Calm Calm - N/A   Clear
4:35 AM 53.6 °F 51.8 °F 94% 29.94 in 10.0 mi Calm Calm - N/A   Clear
4:55 AM 53.6 °F 51.8 °F 94% 29.94 in 10.0 mi Calm Calm - N/A   Clear
5:15 AM 53.6 °F 51.8 °F 94% 29.94 in 10.0 mi Calm Calm - N/A   Clear
5:35 AM 53.6 °F 51.8 °F 94% 29.94 in 10.0 mi Calm Calm - N/A   Clear
5:55 AM 53.6 °F 51.8 °F 94% 29.94 in 10.0 mi Calm Calm - N/A   Clear
6:15 AM 51.8 °F 50.0 °F 94% 29.94 in 10.0 mi Calm Calm - N/A   Clear
6:35 AM 51.8 °F 50.0 °F 94% 29.94 in 10.0 mi Calm Calm - N/A   Clear
6:55 AM 51.8 °F 50.0 °F 94% 29.94 in 10.0 mi Calm Calm - N/A   Clear
7:15 AM 51.8 °F 50.0 °F 94% 29.95 in 10.0 mi Calm Calm - N/A   Clear
7:35 AM 51.8 °F 50.0 °F 94% 29.95 in 10.0 mi Calm Calm - N/A   Clear
7:55 AM 53.6 °F 51.8 °F 94% 29.96 in 10.0 mi Calm Calm - N/A   Clear
8:15 AM 55.4 °F 53.6 °F 94% 29.97 in 10.0 mi Calm Calm - N/A   Clear
8:35 AM 57.2 °F 53.6 °F 88% 29.97 in 10.0 mi Calm Calm - N/A   Clear
8:55 AM 60.8 °F 53.6 °F 77% 29.97 in 10.0 mi Calm Calm - N/A   Clear
9:15 AM 62.6 °F 53.6 °F 72% 29.98 in 10.0 mi Calm Calm - N/A   Clear
9:35 AM 64.4 °F 53.6 °F 68% 29.98 in 10.0 mi Calm Calm - N/A   Clear
9:55 AM 66.2 °F 53.6 °F 64% 29.99 in 10.0 mi Calm Calm - N/A   Clear
10:15 AM 69.8 °F 53.6 °F 56% 29.99 in 10.0 mi East 3.5 mph - N/A   Clear
10:35 AM 73.4 °F 53.6 °F 50% 29.99 in 10.0 mi ESE 4.6 mph - N/A   Clear
10:55 AM 73.4 °F 53.6 °F 50% 29.98 in 10.0 mi SE 5.8 mph - N/A   Clear
11:15 AM 73.4 °F 53.6 °F 50% 29.98 in 9.0 mi East 5.8 mph - N/A   Clear
11:35 AM 75.2 °F 53.6 °F 47% 29.98 in 10.0 mi ENE 5.8 mph - N/A   Clear
11:55 AM 77.0 °F 51.8 °F 41% 29.97 in 10.0 mi ENE 9.2 mph - N/A   Clear
12:15 PM 78.8 °F 53.6 °F 42% 29.97 in 10.0 mi SE 4.6 mph - N/A   Clear
12:35 PM 78.8 °F 48.2 °F 34% 29.96 in 10.0 mi ESE 4.6 mph - N/A   Clear
12:55 PM 78.8 °F 50.0 °F 36% 29.95 in 10.0 mi East 4.6 mph - N/A   Clear
1:15 PM 80.6 °F 48.2 °F 32% 29.95 in 10.0 mi Calm Calm - N/A   Clear
1:35 PM 80.6 °F 48.2 °F 32% 29.94 in 10.0 mi ENE 8.1 mph - N/A   Clear
1:55 PM 80.6 °F 48.2 °F 32% 29.93 in 10.0 mi ENE 4.6 mph - N/A   Clear
2:15 PM 80.6 °F 48.2 °F 32% 29.92 in 10.0 mi NNE 4.6 mph - N/A   Clear
2:35 PM 82.4 °F 44.6 °F 26% 29.91 in 10.0 mi NE 8.1 mph - N/A   Clear
2:55 PM 82.4 °F 46.4 °F 28% 29.90 in 10.0 mi SE 4.6 mph - N/A   Clear
3:15 PM 82.4 °F 44.6 °F 26% 29.89 in 10.0 mi NE 4.6 mph - N/A   Clear
3:35 PM 82.4 °F 44.6 °F 26% 29.88 in 7.0 mi East 8.1 mph - N/A   Clear
3:55 PM 84.2 °F 50.0 °F 30% 29.87 in 10.0 mi NNE 3.5 mph - N/A   Clear
4:15 PM 84.2 °F 50.0 °F 30% 29.86 in 10.0 mi East 8.1 mph - N/A   Clear
4:35 PM 84.2 °F 46.4 °F 27% 29.86 in 10.0 mi East 4.6 mph - N/A   Clear
4:55 PM 84.2 °F 46.4 °F 27% 29.85 in 10.0 mi East 6.9 mph - N/A   Clear
5:15 PM 84.2 °F 46.4 °F 27% 29.85 in 10.0 mi East 5.8 mph - N/A   Clear
5:35 PM 84.2 °F 46.4 °F 27% 29.85 in 10.0 mi ESE 6.9 mph - N/A   Clear
5:55 PM 82.4 °F 46.4 °F 28% 29.85 in 10.0 mi SE 4.6 mph - N/A   Clear
6:15 PM 82.4 °F 46.4 °F 28% 29.85 in 10.0 mi ESE 4.6 mph - N/A   Clear
6:35 PM 82.4 °F 48.2 °F 30% 29.85 in 10.0 mi Calm Calm - N/A   Clear
6:55 PM 80.6 °F 48.2 °F 32% 29.85 in 10.0 mi Calm Calm - N/A   Clear
7:15 PM 78.8 °F 53.6 °F 42% 29.85 in 10.0 mi Calm Calm - N/A   Clear
7:35 PM 73.4 °F 53.6 °F 50% 29.85 in 10.0 mi Calm Calm - N/A   Clear
7:55 PM 71.6 °F 51.8 °F 50% 29.85 in 10.0 mi Calm Calm - N/A   Clear
8:15 PM 69.8 °F 51.8 °F 53% 29.85 in 10.0 mi East 3.5 mph - N/A   Clear
8:35 PM 69.8 °F 50.0 °F 49% 29.85 in 10.0 mi East 3.5 mph - N/A   Clear
8:55 PM 69.8 °F 51.8 °F 53% 29.86 in 10.0 mi Calm Calm - N/A   Clear
9:15 PM 68.0 °F 51.8 °F 56% 29.86 in 10.0 mi Calm Calm - N/A   Clear
9:35 PM 68.0 °F 51.8 °F 56% 29.87 in 10.0 mi Calm Calm - N/A   Clear
9:55 PM 68.0 °F 51.8 °F 56% 29.87 in 10.0 mi Calm Calm - N/A   Clear
10:15 PM 66.2 °F 51.8 °F 60% 29.88 in 10.0 mi Calm Calm - N/A   Clear
10:35 PM 64.4 °F 53.6 °F 68% 29.88 in 10.0 mi Calm Calm - N/A   Clear
10:55 PM 64.4 °F 53.6 °F 68% 29.87 in 10.0 mi East 4.6 mph - N/A   Clear
11:15 PM 64.4 °F 53.6 °F 68% 29.88 in 10.0 mi Calm Calm - N/A   Clear
11:35 PM 64.4 °F 53.6 °F 68% 29.88 in 10.0 mi Calm Calm - N/A   Clear
11:55 PM 64.4 °F 53.6 °F 68% 29.88 in 10.0 mi Calm Calm - N/A   Clear